MTN8501 KFLL-KEYW

Flight info

Callsign MTN8501
Flight time 1h 0m
Altitude 4000
Route FLL V3 EYW
Aircraft C208/L-SDFGR/C

Departure

Time 2026-05-04 13:34
Airport Fort Lauderdale Hollywood International Airport (KFLL)

Arrival

Time 2026-05-04 14:34
Airport Key West International Airport (KEYW)
Time Latitude Longitude Altitude Speed Heading
2026-05-04 13:17 26.07899 -80.15583 14 ft 0 kts 90°
2026-05-04 13:28 26.07900 -80.15570 14 ft 6 kts 76°
2026-05-04 13:29 26.07940 -80.15501 14 ft 16 kts 83°
2026-05-04 13:29 26.07907 -80.15388 14 ft 15 kts 149°
2026-05-04 13:29 26.07810 -80.15348 14 ft 13 kts 88°
2026-05-04 13:29 26.07811 -80.15266 14 ft 10 kts 91°
2026-05-04 13:30 26.07810 -80.15192 14 ft 9 kts 91°
2026-05-04 13:30 26.07810 -80.15125 15 ft 8 kts 90°
2026-05-04 13:30 26.07810 -80.15048 15 ft 13 kts 91°
2026-05-04 13:30 26.07810 -80.14908 15 ft 23 kts 92°
2026-05-04 13:31 26.07810 -80.14701 15 ft 30 kts 86°
2026-05-04 13:31 26.07807 -80.14453 15 ft 35 kts 92°
2026-05-04 13:31 26.07805 -80.14212 15 ft 27 kts 90°
2026-05-04 13:31 26.07804 -80.14035 15 ft 20 kts 91°
2026-05-04 13:32 26.07786 -80.13933 15 ft 3 kts 149°
2026-05-04 13:32 26.07767 -80.13922 15 ft 3 kts 166°
2026-05-04 13:32 26.07714 -80.13924 16 ft 13 kts 194°
2026-05-04 13:32 26.07680 -80.13993 16 ft 0 kts 270°
2026-05-04 13:33 26.07681 -80.14191 18 ft 53 kts 270°
2026-05-04 13:33 26.07682 -80.14761 34 ft 92 kts 271°
2026-05-04 13:33 26.07632 -80.15497 214 ft 99 kts 267°
2026-05-04 13:34 26.07502 -80.16261 437 ft 102 kts 265°
2026-05-04 13:34 26.07442 -80.17013 658 ft 98 kts 284°
2026-05-04 13:34 26.07858 -80.17560 853 ft 93 kts 324°
2026-05-04 13:34 26.07974 -80.18199 1069 ft 96 kts 237°
2026-05-04 13:35 26.07502 -80.18716 1303 ft 97 kts 212°
2026-05-04 13:35 26.06276 -80.19230 1675 ft 97 kts 200°
2026-05-04 13:35 26.05611 -80.19502 1845 ft 105 kts 202°
2026-05-04 13:36 26.04899 -80.19779 2015 ft 112 kts 202°
2026-05-04 13:36 26.04158 -80.20085 2170 ft 116 kts 199°
2026-05-04 13:36 26.03283 -80.20113 2158 ft 136 kts 164°
2026-05-04 13:36 26.02279 -80.20095 2142 ft 155 kts 198°
2026-05-04 13:37 26.01307 -80.20671 2166 ft 162 kts 213°
2026-05-04 13:37 26.00320 -80.21346 2179 ft 168 kts 213°
2026-05-04 13:37 25.99339 -80.22000 2414 ft 160 kts 213°
2026-05-04 13:37 25.98403 -80.22620 2657 ft 154 kts 215°
2026-05-04 13:38 25.97496 -80.23226 2895 ft 151 kts 213°
2026-05-04 13:38 25.96611 -80.23816 3130 ft 146 kts 214°
2026-05-04 13:38 25.95743 -80.24394 3363 ft 144 kts 214°
2026-05-04 13:38 25.94898 -80.24957 3610 ft 139 kts 214°
2026-05-04 13:39 25.94083 -80.25502 3838 ft 134 kts 215°
2026-05-04 13:39 25.93288 -80.26030 4006 ft 137 kts 213°
2026-05-04 13:39 25.92439 -80.26603 4019 ft 147 kts 214°
2026-05-04 13:39 25.91543 -80.27201 4023 ft 154 kts 215°
2026-05-04 13:40 25.90608 -80.27823 4021 ft 159 kts 215°
2026-05-04 13:40 25.89653 -80.28458 4020 ft 162 kts 214°
2026-05-04 13:40 25.88686 -80.29102 4020 ft 163 kts 214°
2026-05-04 13:40 25.87714 -80.29749 4019 ft 163 kts 213°
2026-05-04 13:41 25.86741 -80.30396 4019 ft 163 kts 213°
2026-05-04 13:41 25.85771 -80.31040 4016 ft 162 kts 214°
2026-05-04 13:41 25.84809 -80.31681 3999 ft 161 kts 214°
2026-05-04 13:42 25.82899 -80.32951 3999 ft 161 kts 214°
2026-05-04 13:42 25.81981 -80.33563 4000 ft 161 kts 213°
2026-05-04 13:42 25.80998 -80.34218 4002 ft 165 kts 215°
2026-05-04 13:42 25.79982 -80.34861 3996 ft 175 kts 204°
2026-05-04 13:43 25.78779 -80.35180 4001 ft 180 kts 192°
2026-05-04 13:43 25.77543 -80.35408 3992 ft 181 kts 192°
2026-05-04 13:43 25.76310 -80.35666 3994 ft 179 kts 193°
2026-05-04 13:43 25.75101 -80.35926 3992 ft 173 kts 195°
2026-05-04 13:44 25.73934 -80.36185 3993 ft 169 kts 192°
2026-05-04 13:44 25.72797 -80.36420 3990 ft 164 kts 196°
2026-05-04 13:44 25.71673 -80.36673 3994 ft 166 kts 192°
2026-05-04 13:44 25.70542 -80.36907 3994 ft 165 kts 193°
2026-05-04 13:45 25.69408 -80.37148 4002 ft 168 kts 192°
2026-05-04 13:45 25.68241 -80.37403 4008 ft 173 kts 194°
2026-05-04 13:45 25.67066 -80.37662 4001 ft 171 kts 193°
2026-05-04 13:45 25.65905 -80.37905 4000 ft 168 kts 194°
2026-05-04 13:46 25.64769 -80.38159 4004 ft 166 kts 194°
2026-05-04 13:46 25.63641 -80.38400 4000 ft 164 kts 193°
2026-05-04 13:46 25.62522 -80.38630 4003 ft 163 kts 193°
2026-05-04 13:46 25.61417 -80.38870 4008 ft 161 kts 193°
2026-05-04 13:47 25.60314 -80.39102 4007 ft 161 kts 194°
2026-05-04 13:47 25.59210 -80.39340 4006 ft 162 kts 195°
2026-05-04 13:47 25.58101 -80.39579 4008 ft 163 kts 194°
2026-05-04 13:47 25.56981 -80.39818 3991 ft 164 kts 194°
2026-05-04 13:48 25.55857 -80.40058 3992 ft 165 kts 195°
2026-05-04 13:48 25.54733 -80.40299 3993 ft 165 kts 193°
2026-05-04 13:48 25.53610 -80.40538 3992 ft 164 kts 194°
2026-05-04 13:48 25.52491 -80.40777 3992 ft 164 kts 194°
2026-05-04 13:49 25.51371 -80.41016 3993 ft 164 kts 194°
2026-05-04 13:49 25.50253 -80.41260 3990 ft 164 kts 195°
2026-05-04 13:49 25.49133 -80.41494 3993 ft 164 kts 195°
2026-05-04 13:49 25.48031 -80.41727 3995 ft 164 kts 196°
2026-05-04 13:50 25.46897 -80.41972 4009 ft 169 kts 194°
2026-05-04 13:50 25.45718 -80.42227 3991 ft 176 kts 194°
2026-05-04 13:50 25.44522 -80.42521 3992 ft 176 kts 193°
2026-05-04 13:50 25.43326 -80.42726 3989 ft 172 kts 191°
2026-05-04 13:51 25.42161 -80.42964 3984 ft 169 kts 193°
2026-05-04 13:51 25.41023 -80.43218 3985 ft 166 kts 195°
2026-05-04 13:51 25.39897 -80.43464 4001 ft 164 kts 195°
2026-05-04 13:51 25.38776 -80.43703 4002 ft 164 kts 195°
2026-05-04 13:52 25.36524 -80.44186 4004 ft 165 kts 193°
2026-05-04 13:52 25.35391 -80.44425 4001 ft 166 kts 194°
2026-05-04 13:52 25.34259 -80.44668 4003 ft 166 kts 193°
2026-05-04 13:53 25.33123 -80.44910 4002 ft 166 kts 193°
2026-05-04 13:53 25.31989 -80.45150 3998 ft 166 kts 195°
2026-05-04 13:53 25.30860 -80.45391 3993 ft 164 kts 193°
2026-05-04 13:54 25.28625 -80.45867 3993 ft 163 kts 194°
2026-05-04 13:54 25.27513 -80.46104 3990 ft 163 kts 193°
2026-05-04 13:54 25.25287 -80.46577 3991 ft 163 kts 194°
2026-05-04 13:55 25.24169 -80.46816 3994 ft 164 kts 193°
2026-05-04 13:55 25.21918 -80.47294 3995 ft 165 kts 194°
2026-05-04 13:55 25.20782 -80.47533 3993 ft 168 kts 192°
2026-05-04 13:56 25.19634 -80.47761 3998 ft 167 kts 195°
2026-05-04 13:56 25.18501 -80.48014 4001 ft 166 kts 195°
2026-05-04 13:56 25.16259 -80.48497 4000 ft 164 kts 194°
2026-05-04 13:57 25.15139 -80.48735 4000 ft 164 kts 194°
2026-05-04 13:57 25.14018 -80.48973 3999 ft 164 kts 194°
2026-05-04 13:58 25.10648 -80.49688 4001 ft 165 kts 195°
2026-05-04 13:58 25.08401 -80.50166 3989 ft 164 kts 195°
2026-05-04 13:58 25.07284 -80.50401 3989 ft 163 kts 194°
2026-05-04 13:59 25.06172 -80.50638 3993 ft 163 kts 193°
2026-05-04 13:59 25.05059 -80.50873 3991 ft 163 kts 194°
2026-05-04 13:59 25.02825 -80.51348 3992 ft 164 kts 194°
2026-05-04 14:00 25.01698 -80.51585 3996 ft 165 kts 195°
2026-05-04 14:00 24.99440 -80.52065 3994 ft 167 kts 194°
2026-05-04 14:00 24.98305 -80.52304 3995 ft 166 kts 195°
2026-05-04 14:01 24.97174 -80.52543 3999 ft 166 kts 194°
2026-05-04 14:01 24.96039 -80.52784 3991 ft 166 kts 194°
2026-05-04 14:01 24.93770 -80.53264 3992 ft 166 kts 194°
2026-05-04 14:02 24.92636 -80.53503 3990 ft 166 kts 195°
2026-05-04 14:02 24.91509 -80.53740 3987 ft 164 kts 196°
2026-05-04 14:02 24.90391 -80.53970 3988 ft 163 kts 194°
2026-05-04 14:02 24.89276 -80.54211 3987 ft 163 kts 194°
2026-05-04 14:03 24.88162 -80.54448 3985 ft 163 kts 194°
2026-05-04 14:03 24.87052 -80.54681 3987 ft 163 kts 194°
2026-05-04 14:03 24.85941 -80.54916 3986 ft 162 kts 193°
2026-05-04 14:03 24.84829 -80.55150 3986 ft 163 kts 193°
2026-05-04 14:04 24.82609 -80.55619 3985 ft 162 kts 193°
2026-05-04 14:04 24.81502 -80.55852 3988 ft 162 kts 194°
2026-05-04 14:04 24.80391 -80.56087 3988 ft 162 kts 194°
2026-05-04 14:05 24.78171 -80.56558 3987 ft 163 kts 193°
2026-05-04 14:05 24.77058 -80.56794 3985 ft 163 kts 193°
2026-05-04 14:05 24.75945 -80.57029 3985 ft 163 kts 194°
2026-05-04 14:06 24.74833 -80.57265 3987 ft 162 kts 193°
2026-05-04 14:06 24.73727 -80.57499 3985 ft 162 kts 193°
2026-05-04 14:06 24.72674 -80.57878 3986 ft 158 kts 215°
2026-05-04 14:06 24.71911 -80.58715 3985 ft 155 kts 239°
2026-05-04 14:07 24.71555 -80.59809 3987 ft 152 kts 264°
2026-05-04 14:07 24.71450 -80.60963 3990 ft 152 kts 264°
2026-05-04 14:07 24.71327 -80.62118 3990 ft 152 kts 264°
2026-05-04 14:07 24.71206 -80.63268 3991 ft 152 kts 264°
2026-05-04 14:08 24.71086 -80.64422 3989 ft 152 kts 264°
2026-05-04 14:08 24.70966 -80.65578 3987 ft 152 kts 264°
2026-05-04 14:08 24.70887 -80.66341 3987 ft 152 kts 264°
2026-05-04 14:08 24.70724 -80.67895 3987 ft 153 kts 264°
2026-05-04 14:09 24.70522 -80.69827 3987 ft 153 kts 264°
2026-05-04 14:09 24.70361 -80.71368 3989 ft 153 kts 264°
2026-05-04 14:10 24.70118 -80.73688 3988 ft 152 kts 264°
2026-05-04 14:10 24.70036 -80.74468 3987 ft 152 kts 264°
2026-05-04 14:10 24.69876 -80.75992 3989 ft 151 kts 264°
2026-05-04 14:10 24.69754 -80.77142 3989 ft 152 kts 264°
2026-05-04 14:11 24.69634 -80.78292 3988 ft 151 kts 264°
2026-05-04 14:11 24.69432 -80.80211 3988 ft 150 kts 264°
2026-05-04 14:11 24.69312 -80.81349 3987 ft 149 kts 264°
2026-05-04 14:12 24.69192 -80.82484 3991 ft 150 kts 264°
2026-05-04 14:12 24.69072 -80.83622 3991 ft 150 kts 264°
2026-05-04 14:12 24.68832 -80.85892 3993 ft 150 kts 264°
2026-05-04 14:13 24.68712 -80.87036 3993 ft 151 kts 264°
2026-05-04 14:13 24.68591 -80.88170 3992 ft 152 kts 264°
2026-05-04 14:13 24.68469 -80.89319 3993 ft 151 kts 264°
2026-05-04 14:13 24.68347 -80.90469 3994 ft 152 kts 264°
2026-05-04 14:14 24.68224 -80.91622 3991 ft 152 kts 264°
2026-05-04 14:14 24.67979 -80.93941 3993 ft 152 kts 264°
2026-05-04 14:14 24.67855 -80.95100 3995 ft 153 kts 264°
2026-05-04 14:15 24.67610 -80.97409 3996 ft 152 kts 264°
2026-05-04 14:15 24.67361 -80.99741 4006 ft 156 kts 264°
2026-05-04 14:16 24.67107 -81.02115 4006 ft 156 kts 264°
2026-05-04 14:16 24.66981 -81.03291 4007 ft 155 kts 264°
2026-05-04 14:17 24.66730 -81.05632 4004 ft 154 kts 265°
2026-05-04 14:17 24.66606 -81.06799 4004 ft 154 kts 264°
2026-05-04 14:17 24.66356 -81.09124 4000 ft 153 kts 264°
2026-05-04 14:18 24.66232 -81.10278 3997 ft 151 kts 264°
2026-05-04 14:18 24.65989 -81.12575 4005 ft 155 kts 265°
2026-05-04 14:19 24.65731 -81.14961 4008 ft 158 kts 264°
2026-05-04 14:19 24.65602 -81.16161 4009 ft 158 kts 264°
2026-05-04 14:19 24.65471 -81.17357 4007 ft 157 kts 264°
2026-05-04 14:19 24.65342 -81.18538 4003 ft 155 kts 264°
2026-05-04 14:20 24.65216 -81.19711 3999 ft 155 kts 264°
2026-05-04 14:20 24.65089 -81.20884 4000 ft 154 kts 264°
2026-05-04 14:20 24.64963 -81.22059 3997 ft 154 kts 264°
2026-05-04 14:21 24.64710 -81.24395 3996 ft 154 kts 264°
2026-05-04 14:21 24.64585 -81.25563 3995 ft 153 kts 265°
2026-05-04 14:21 24.64462 -81.26726 3998 ft 154 kts 264°
2026-05-04 14:21 24.64334 -81.27894 3996 ft 154 kts 264°
2026-05-04 14:22 24.64206 -81.29068 3994 ft 155 kts 264°
2026-05-04 14:22 24.64077 -81.30246 3991 ft 155 kts 264°
2026-05-04 14:22 24.63948 -81.31425 3990 ft 155 kts 264°
2026-05-04 14:22 24.63819 -81.32604 3991 ft 155 kts 264°
2026-05-04 14:23 24.63561 -81.34957 3991 ft 155 kts 264°
2026-05-04 14:23 24.63433 -81.36134 3991 ft 155 kts 264°
2026-05-04 14:23 24.63304 -81.37306 3991 ft 154 kts 264°
2026-05-04 14:24 24.63177 -81.38468 3989 ft 153 kts 264°
2026-05-04 14:24 24.63050 -81.39629 3992 ft 154 kts 264°
2026-05-04 14:24 24.62922 -81.40801 3997 ft 156 kts 264°
2026-05-04 14:24 24.62792 -81.41993 3997 ft 157 kts 264°
2026-05-04 14:25 24.62660 -81.43191 3998 ft 158 kts 264°
2026-05-04 14:25 24.62398 -81.45580 3995 ft 156 kts 264°
2026-05-04 14:25 24.62268 -81.46761 3992 ft 155 kts 264°
2026-05-04 14:26 24.62139 -81.47937 3992 ft 155 kts 264°
2026-05-04 14:26 24.62010 -81.49113 3990 ft 155 kts 264°
2026-05-04 14:26 24.61879 -81.50289 3988 ft 155 kts 264°
2026-05-04 14:26 24.61751 -81.51460 3993 ft 155 kts 264°
2026-05-04 14:27 24.61625 -81.52628 3995 ft 153 kts 264°
2026-05-04 14:27 24.61492 -81.53791 3993 ft 154 kts 264°
2026-05-04 14:27 24.61363 -81.54957 3993 ft 154 kts 264°
2026-05-04 14:27 24.61235 -81.56127 3995 ft 154 kts 264°
2026-05-04 14:28 24.61105 -81.57301 3998 ft 155 kts 264°
2026-05-04 14:28 24.60975 -81.58478 3996 ft 155 kts 264°
2026-05-04 14:28 24.60847 -81.59640 4007 ft 155 kts 264°
2026-05-04 14:28 24.60716 -81.60818 4009 ft 155 kts 264°
2026-05-04 14:29 24.60468 -81.63094 3997 ft 133 kts 264°
2026-05-04 14:29 24.60242 -81.65098 3746 ft 138 kts 264°
2026-05-04 14:30 24.60137 -81.66002 4293 ft 104 kts 263°
2026-05-04 14:30 24.60028 -81.66939 4048 ft 139 kts 264°
2026-05-04 14:30 24.59754 -81.69177 3713 ft 160 kts 261°
2026-05-04 14:31 24.59504 -81.70310 3525 ft 148 kts 255°
2026-05-04 14:31 24.59390 -81.72454 3085 ft 142 kts 270°
2026-05-04 14:32 24.59185 -81.74594 2596 ft 138 kts 265°
2026-05-04 14:32 24.59074 -81.75623 2303 ft 134 kts 266°
2026-05-04 14:32 24.58963 -81.76650 1932 ft 137 kts 266°
2026-05-04 14:32 24.58838 -81.77688 1565 ft 137 kts 263°
2026-05-04 14:33 24.58431 -81.78589 1421 ft 128 kts 227°
2026-05-04 14:33 24.57666 -81.79059 1185 ft 129 kts 195°
2026-05-04 14:33 24.56867 -81.79028 1145 ft 109 kts 158°
2026-05-04 14:33 24.56228 -81.78549 865 ft 117 kts 139°
2026-05-04 14:34 24.55697 -81.77832 409 ft 126 kts 112°
2026-05-04 14:34 24.55608 -81.76916 95 ft 115 kts 88°
2026-05-04 14:34 24.55613 -81.76106 12 ft 96 kts 90°
2026-05-04 14:34 24.55616 -81.75703 12 ft 17 kts 87°
2026-05-04 14:35 24.55602 -81.75592 13 ft 11 kts 147°
2026-05-04 14:35 24.55532 -81.75576 11 ft 9 kts 115°
2026-05-04 14:35 24.55531 -81.75524 11 ft 5 kts 89°
2026-05-04 14:35 24.55531 -81.75491 11 ft 4 kts 89°
2026-05-04 14:36 24.55532 -81.75445 11 ft 9 kts 89°
2026-05-04 14:36 24.55532 -81.75371 11 ft 7 kts 89°
2026-05-04 14:36 24.55532 -81.75350 11 ft 0 kts 89°
2026-05-04 14:36 24.55526 -81.75321 11 ft 9 kts 140°
2026-05-04 14:37 24.55489 -81.75294 11 ft 3 kts 121°
2026-05-04 14:37 24.55474 -81.75269 11 ft 6 kts 122°
2026-05-04 14:37 24.55454 -81.75253 11 ft 0 kts 145°
2026-05-04 14:37 24.55453 -81.75253 11 ft 0 kts 144°